This is the latest recevied weather packets stored in our database for station/object K7YVO. If no packets are shown the sender has not sent any weather packets the latest 10 day(s).
| Time | Temp. | Humidity | Pressure | Rain* | Wind** | Luminosity | Snow |
|---|---|---|---|---|---|---|---|
| 1778107594 | 18.33° C | 68% | 1022.5 hPa | 0 mm | - | 191 W/m² | - |
| 1778107291 | 17.78° C | 70% | 1022.5 hPa | 0 mm | - | 553 W/m² | - |
| 1778106987 | 17.22° C | 71% | 1022.5 hPa | 0 mm | - | 271 W/m² | - |
| 1778106683 | 17.78° C | 71% | 1022.5 hPa | 0 mm | - | 206 W/m² | - |
| 1778106381 | 18.33° C | 68% | 1022.6 hPa | 0 mm | - | 258 W/m² | - |
| 1778106076 | 17.78° C | 70% | 1022.8 hPa | 0 mm | - | 222 W/m² | - |
| 1778105774 | 18.33° C | 67% | 1022.4 hPa | 0 mm | - | 522 W/m² | - |
| 1778105472 | 17.78° C | 70% | 1022.5 hPa | 0 mm | - | 348 W/m² | - |
| 1778105168 | 17.22° C | 71% | 1022.8 hPa | 0 mm | - | 252 W/m² | - |
| 1778104864 | 17.78° C | 70% | 1022.6 hPa | 0 mm | - | 269 W/m² | - |
| 1778104561 | 17.22° C | 71% | 1022.4 hPa | 0 mm | - | 237 W/m² | - |
| 1778104256 | 17.78° C | 71% | 1022.6 hPa | 0 mm | - | 431 W/m² | - |
| 1778103953 | 17.22° C | 72% | 1022.9 hPa | 0 mm | - | 366 W/m² | - |
| 1778103651 | 17.22° C | 72% | 1022.8 hPa | 0 mm | - | 445 W/m² | - |
| 1778103349 | 17.22° C | 73% | 1022.9 hPa | 0 mm | - | 333 W/m² | - |
| 1778103045 | 17.22° C | 73% | 1023 hPa | 0 mm | - | 216 W/m² | - |
| 1778102742 | 17.22° C | 73% | 1023 hPa | 0 mm | - | 277 W/m² | - |
| 1778102437 | 17.22° C | 73% | 1023 hPa | 0 mm | - | 280 W/m² | - |
| 1778102133 | 16.67° C | 73% | 1023 hPa | 0 mm | - | 249 W/m² | - |
| 1778101831 | 16.67° C | 74% | 1023 hPa | 0 mm | - | 414 W/m² | - |
| 1778101527 | 16.67° C | 74% | 1022.8 hPa | 0 mm | - | 304 W/m² | - |
| 1778101224 | 17.22° C | 73% | 1022.9 hPa | 0 mm | - | 270 W/m² | - |
| 1778100921 | 16.67° C | 74% | 1023.1 hPa | 0 mm | - | 401 W/m² | - |
| 1778100616 | 16.67° C | 75% | 1022.9 hPa | 0 mm | - | 263 W/m² | - |
| 1778100314 | 16.67° C | 74% | 1023.1 hPa | 0 mm | - | 365 W/m² | - |
* Rain latest hour (hover to see other rain measurements)
** Current wind speed in m/s (hover to see current wind gust speed)